Hourly Data Report for October 20, 2013

All times are specified in Local Standard Time (LST). Add 1 hour to adjust for Daylight Saving Time where and when it is observed.

KITCHENER/WATERLOO
ONTARIO

43°27'39.000" N
80°22'43.000" W
321.60 m
6144239
71368
YKF

Download Data

Hourly Data (October 2013)
Hourly Data Report for October 20, 2013
Temp Definition
°C
Dew Point Temp Definition
°C
Rel Hum Definition
%
Wind Dir Definition
10's deg

Wind Spd Definition
km/h
Visibility Definition
km
Stn Press Definition
kPa
Hmdx Definition


Wind Chill Definition


Weather Definition


TIME
00:00 Legend Double Dagger 4.4 2.9 90 23 24 16.1 97.03     LegendNANA
01:00 Legend Double Dagger 5.2 2.9 85 25 22 16.1 97.05     LegendNANA
02:00 Legend Double Dagger 3.4 2.4 93 23 15 16.1 97.08     LegendNANA
03:00 Legend Double Dagger 3.7 2.4 91 25 17 16.1 97.08     LegendNANA
04:00 Legend Double Dagger 3.3 2.0 91 25 13 16.1 97.11     LegendNANA
05:00 Legend Double Dagger 3.5 2.2 91 24 15 16.1 97.12     LegendNANA
06:00 Legend Double Dagger 2.9 1.8 93 26 9 16.1 97.16     LegendNANA
07:00 Legend Double Dagger 3.2 2.2 93 24 11 14.5 97.21     LegendNANA
08:00 Legend Double Dagger 4.4 3.1 91 23 9 12.9 97.29     LegendNANA
09:00 Legend Double Dagger 6.4 3.8 84 24 15 16.1 97.34     LegendNANA
10:00 Legend Double Dagger 8.0 4.8 80 25 18 16.1 97.40     LegendNANA
11:00 Legend Double Dagger 9.4 4.7 72 22 22 16.1 97.37     LegendNANA
12:00 Legend Double Dagger 9.6 3.2 64 23 24 16.1 97.40     LegendNANA
13:00 Legend Double Dagger 10.3 2.3 58 23 26 16.1 97.38     LegendNANA
14:00 Legend Double Dagger 10.7 1.3 52 25 30 16.1 97.37     LegendNANA
15:00 Legend Double Dagger 11.5 -0.3 44 24 26 16.1 97.40     LegendNANA
16:00 Legend Double Dagger 10.2 0.4 50 25 21 16.1 97.44     LegendNANA
17:00 Legend Double Dagger 9.1 0.9 56 23 17 16.1 97.49     LegendNANA
18:00 Legend Double Dagger 7.8 1.2 63 22 8 16.1 97.54     LegendNANA
19:00 Legend Double Dagger 5.0 1.3 77 19 4 16.1 97.57     LegendNANA
20:00 Legend Double Dagger 3.4 1.3 86 14 4 16.1 97.55     LegendNANA
21:00 Legend Double Dagger 5.3 2.6 83 7 5 16.1 97.51     LegendNANA
22:00 Legend Double Dagger 6.4 2.9 78 8 4 16.1 97.50     LegendNANA
23:00 Legend Double Dagger 6.7 4.1 84 13 8 16.1 97.45     LegendNANA

Notes on Data Quality.

Legend

  • E = Estimated
  • M = Missing
  • NA = Not Available
  • ‡ = Partner data that is not subject to review by the National Climate Archives
Date modified: